www.pogodaiklimat.ru

Архив погоды в Охотске (Хабаровский край, Россия)

Время
(UTC), дата
09 17.06
12 17.06
15 17.06
18 17.06
21 17.06
00 18.06
03 18.06
06 18.06
09 18.06
12 18.06
15 18.06
18 18.06
21 18.06
00 19.06
03 19.06
06 19.06
09 19.06
12 19.06
15 19.06
18 19.06
21 19.06
00 20.06
03 20.06
06 20.06
09 20.06
12 20.06
15 20.06
18 20.06
21 20.06
00 21.06
03 21.06
06 21.06
09 21.06
12 21.06
15 21.06
18 21.06
21 21.06
00 22.06
03 22.06
06 22.06
09 22.06
12 22.06
15 22.06
18 22.06
21 22.06
00 23.06
03 23.06
06 23.06
09 23.06
12 23.06
15 23.06
18 23.06
21 23.06
00 24.06
03 24.06
06 24.06
Ветер
(напр.,м/с)
Видим. Явления Облачность Т
(С)
Тd
(С)
f
(%)
Тe
(С)
Тes
(С)
Комфортность P
(гПа)
Po
(гПа)
Тmin
(С)
Tmax
(С)
R
(мм)
R24
(мм)
S
(см)
ЮВ 5 50 км 9/9 300 м
[Cb calv]
+8.4 +7.0 91 +5 +5 по сезону 1014.6 1014.0 +8.4
С 1 50 км 10/10 300 м
[Cb calv]
+8.4 +5.7 83 +8 +8 тепло 1014.6 1013.9
С 3 2000 м ливневой дождь 10/10 300 м
[Cb cap]
+8.0 +6.6 91 +5 +5 по сезону 1013.5 1012.8
С 2 2000 м ливневой дождь 10/10 300 м
[Cb cap]
+7.4 +7.4 100 +5 +5 по сезону 1012.2 1011.5
В 7-12 {13} 2000 м ливневой дождь 10/10 300 м
[Cb cap]
+7.6 +7.4 99 +3 +3 по сезону 1012.5 1011.8 +7.2 13
В 10-14 {15} 4000 м слаб. ливневой дождь 10/10 300 м
[Cb cap]
+6.9 +6.7 99 +1 +1 прохладно 1012.7 1012.0 +6.9
В 11-17 {19} 4000 м слаб. ливневой дождь 10/10 300 м
[Cb cap]
+6.7 +6.7 100 0 0 прохладно 1012.8 1012.1
В 11-16 {17} 4000 м ливневой дождь 10/10 300 м
[Cb cap]
+6.3 +6.3 100 -0 -0 прохладно 1013.9 1013.2
В 10-14 {16} 4000 м слаб. ливневой дождь 10/10 300 м
[Cb cap]
+6.2 +6.2 100 -0 -0 прохладно 1015.3 1014.6 +7.7 13
В 9-13 {15} 4000 м слаб. ливневой дождь 10/10 300 м
[Cb cap]
+6.0 +6.0 100 -0 -0 прохладно 1016.3 1015.6
В 8-12 {14} 4000 м слаб. ливневой дождь 10/10 300 м
[Cb cap]
+5.9 +5.9 100 0 0 по сезону 1017.1 1016.4
В 8-11 {14} 2000 м слаб. морось {ливн. дождь} 10/10 300 м
[St]
+6.5 +6.5 100 +1 +1 по сезону 1017.9 1017.2
В 6 {12} 4000 м слаб. ливневой дождь {морось} 10/10 300 м
[Cb cap]
+7.3 +7.0 98 +3 +3 по сезону 1018.9 1018.2 +5.9 10
В 4 {10} 2000 м слаб. морось {ливн. дождь} 10/10 300 м
[St]
+7.4 +7.4 100 +4 +4 по сезону 1019.8 1019.1
В 5 4000 м слаб. ливневой дождь {морось} 10/10 300 м
[Cb cap]
+7.5 +7.5 100 +3 +3 по сезону 1019.8 1019.1
ЮВ 6 4000 м слаб. ливневой дождь {морось} 10/10 300 м
[Cb cap]
+7.4 +7.4 100 +3 +3 по сезону 1019.6 1018.9
В 4 20 км {ливн. дождь} 10/10 300 м
[Cb calv]
+8.0 +7.6 97 +5 +5 по сезону 1019.6 1018.9 +8.2 2
В 1 50 км {ливн. дождь} 10/10 600 м
[Cb calv]
+7.5 +7.3 99 +6 +6 тепло 1019.8 1019.1
СЗ 2 4000 м дымка 10/10 300 м
[St]
+7.3 +7.3 100 +5 +5 по сезону 1019.2 1018.5
С 3 50 км 9/9 600 м
[Cb calv]
+6.9 +6.9 100 +4 +4 по сезону 1018.6 1017.9
С 2 50 км 9/8 600 м
[Cb calv Ac und]
+9.3 +9.3 100 +7 +8 тепло 1018.3 1017.6 +6.9
С 2 50 км 9/6 600 м
[Cb calv Ac trans]
+12.9 +10.2 84 +12 +15 тепло 1018.0 1017.3
ЮЗ 4 50 км 8/4 600 м
[Cb calv Ac trans Ci fib]
+11.6 +9.8 89 +9 +13 по сезону 1017.1 1016.4
ЮЗ 5 50 км 9/6 600 м
[Sc Ac trans]
+10.7 +8.4 86 +8 +9 по сезону 1016.2 1015.5
ЮВ 2 50 км 6/3 600 м
[Sc Ac trans Ci fib]
+9.5 +8.5 93 +8 +9 по сезону 1015.9 1015.2 +14.0
ЮВ 3 50 км 3/1 600 м
[Sc Ci fib]
+8.4 +8.1 98 +6 +6 по сезону 1015.8 1015.1
Ю 3 50 км 3/0
[Ci fib]
+8.1 +7.7 97 +5 +5 по сезону 1015.7 1015.0
Ю 2 50 км 8/8 300 м
[St]
+7.3 +7.3 100 +5 +5 по сезону 1015.1 1014.4
СВ 1 500 м туман, небо не видно ?/? +7.8 +7.8 100 +7 +7 по сезону 1015.2 1014.5 +7.1
ЮЗ 4 1000 м дымка {туман} 9/9 300 м
[St]
+8.7 +8.7 100 +5 +6 прохладно 1014.4 1013.7
Ю 3 50 км 10/0
[Ci fib]
+11.0 +9.4 90 +9 +19 опасность простуды 1013.7 1013.0
Ю 3 50 км 10/0
[Ci fib]
+11.3 +8.4 82 +9 +15 по сезону 1012.8 1012.1
Ю 4 50 км 10/3 600 м
[Cb calv Ci sp]
+9.1 +7.7 91 +6 +7 по сезону 1012.3 1011.6 +11.8
ЮВ 4 50 км 10/4 600 м
[Cb calv Ac trans Ci sp]
+8.2 +7.5 95 +5 +5 по сезону 1012.4 1011.7
ЮВ 4 50 км 10/8 600 м
[Cb calv Ac trans Ci sp]
+8.4 +7.9 97 +5 +5 по сезону 1011.6 1010.9
Ю 3 20 км 10/10 300 м
[Cb calv]
+8.0 +7.8 99 +5 +5 по сезону 1011.2 1010.5
ЮЗ 3 500 м туман, небо не видно ?/? +7.6 +7.6 100 +5 +5 по сезону 1011.3 1010.6 +7.6
ЮЗ 2 4000 м слаб. ливневой дождь {туман} 10/10 300 м
[Cb cap]
+7.6 +7.6 100 +5 +5 прохладно 1011.4 1010.7 +7.4
Ю 2 2000 м ливневой дождь 10/10 300 м
[Cb cap]
+7.8 +7.8 100 +6 +6 прохладно 1011.8 1011.1
Ю 2 4000 м дымка {ливн. дождь} 10/10 300 м
[Cb calv]
+8.6 +8.2 97 +7 +7 по сезону 1011.6 1010.9
Ю 4 4000 м дымка 10/10 300 м
[Cb calv]
+7.4 +7.2 99 +4 +4 прохладно 1012.5 1011.8 +8.8 7
Ю 5 4000 м дымка {ливн. дождь} 10/10 300 м
[Cb calv]
+6.4 +6.4 100 +2 +2 холодно 1013.5 1012.8
ЮВ 3 4000 м дымка 10/10 300 м
[Cb calv]
+6.1 +6.1 100 +3 +3 прохладно 1014.4 1013.7
ЮВ 4 4000 м дымка 10/10 300 м
[Cb calv]
+6.1 +6.1 100 +2 +2 прохладно 1014.4 1013.7
ЮВ 5 4000 м слаб. ливневой дождь 10/10 300 м
[Cb cap]
+6.0 +6.0 100 +1 +1 холодно 1014.8 1014.1 +5.8 0.3
ЮВ 5 4000 м слаб. ливневой дождь 10/10 300 м
[Cb cap]
+6.7 +6.4 98 +2 +2 холодно 1015.3 1014.6
ЮВ 5 4000 м слаб. ливневой дождь 10/10 300 м
[Cb cap]
+6.9 +6.8 99 +3 +3 холодно 1015.4 1014.8
ЮВ 4 4000 м слаб. ливневой дождь 10/10 300 м
[Cb cap]
+7.5 +7.5 100 +4 +4 холодно 1015.4 1014.7
ЮВ 2 4000 м слаб. ливневой дождь 10/10 300 м
[Cb cap]
+7.4 +7.2 99 +5 +5 прохладно 1015.0 1014.3 +7.7 4
штиль 0 4000 м дымка {ливн. дождь} 9/8 300 м
[Cb calv Ac und]
+7.3 +7.2 99 +6 +6 по сезону 1015.0 1014.3
штиль 0 2000 м дымка 10/10 300 м
[St]
+7.4 +7.4 100 +6 +6 по сезону 1014.4 1013.7
З 1 2000 м в посл. час туман 10/10 300 м
[St]
+7.5 +7.5 100 +6 +6 по сезону 1014.4 1013.7
СЗ 2 2000 м дымка 9/9 300 м
[St]
+8.0 +8.0 100 +6 +6 по сезону 1013.9 1013.2 +7.3
ЮЗ 4 20 км 9/9 300 м
[St]
+10.1 +9.6 97 +7 +8 по сезону 1013.1 1012.4
ЮЗ 4 4000 м дымка 8/6 300 м
[Cu med, cong Ci fib]
+10.9 +9.6 92 +8 +12 по сезону 1012.2 1011.5
Ю 3 50 км 9/1 600 м
[Cu med, cong Ac trans Ci sp]
+11.0 +9.5 90 +9 +13 по сезону 1011.1 1010.4
Местоположение метеостанции Охотск (Хабаровский край, Россия): широта 59.36 долгота 143.20 высота над уровнем моря 6 м.
В архиве по умолчанию представлена погода в Охотске за последнюю неделю. Архивные данные за месяц целиком и за предыдущие месяцы, начиная с января 2011 года, Вы можете получить, выбрав интересующий диапазон дат из раскрывающегося списка и нажав кнопку "Найти!".
*Определитесь, кто Вы:
Внимание! Время в таблицах - всемирное. Для получения местного времени необходимо прибавить поправку, которая равна 10 ч.
Некоторые строки с данными для отдельных станций могут быть выделены курсивом. Это означает, что фактические данные отсутствуют по различным причинам, а приведенные значения являются расчетными модельными данными для данного пункта наблюдений.
Смотрите также архив погоды в соседних городах и на ближайших метеорологических станциях:
Партнеры нашего сайта:      
Пояснения к столбцам:
  • Ветер - указаны скорость ветра в м/с - средняя за 10 мин, порывы в срок и между сроками (в фигурных скобках) и направление, откуда дует ветер: С - северный,
  • СВ - северо-восточный, В - восточный, ЮВ - юго-восточный, Ю - южный, ЮЗ - юго-западный, З - западный, СЗ - северо-западный.
  • Видимость - горизонтальная дальность видимости в метрах или километрах. При видимости от 1 до 10 км при отсутствии осадков обычно наблюдается дымка, при ухудшении видимости до 1 км и менее - туман. В сухую погоду видимость может ухудшаться дымом, пылью или мглою.
  • Явления - указаны атмосферные явления, наблюдавшиеся в срок или в последний час перед сроком; фигурными скобками обозначены явления, наблюдавшиеся между сроками (за 1-3 часа до срока); квадратными скобками обозначены град или гололедные отложения с указанием их диаметра в мм.
  • Облачность - указаны через наклонную черту общая и нижняя облачность в баллах и высота нижней границы облаков в метрах; квадратными скобками обозначены формы облаков: Ci - перистые, Cs - перисто-слоистые, Cc - перисто-кучевые, Ac - высококучевые, As - высокослоистые, Sc - слоисто-кучевые, Ns - слоисто-дождевые, Cu - кучевые, Cb - кучево-дождевые. Подробнее классификацию облаков см. в Атласе облаков (PDF).
  • T - Температура воздуха - температура, измеренная на высоте 2 м над землей.
  • Td - Температура точки росы - температура, при понижении до которой содержащийся в воздухе водяной пар достигнет насыщения.
  • f - Относительная влажность воздуха - влажноcть воздуха, измеренная на высоте 2 м над землей.
  • Te - Эффективная температура - температура, которую ощущает одетый по сезону человек в тени. Характеристика душности погоды. При расчете учитывается влияние влажности воздуха и скорости ветра на теплоощущения человека.
  • Tes - Эффективная температура на солнце - температура, которую ощущает человек, с поправкой на солнечный нагрев. Характеристика знойности погоды. Зависит от высоты солнца над горизонтом, облачности и скорости ветра. Ночью, в пасмурную погоду, а также при ветре 12 м/с и более поправка равна нулю.
  • P - Атмосферное давление - приведенное к уровню моря атмосферное давление.
  • Po - Атмосферное давление - измеренное на уровне метеостанции атмосферное давление.
  • Tmin - Минимальная температура - минимум температуры воздуха на высоте 2 м над землей.
  • Tmax - Максимальная температура - максимум температуры воздуха на высоте 2 м над землей.
  • R - Количество осадков - Количество выпавших осадков за период времени, мм. При наведении курсора мыши на число - период времени, за который выпало указанное количество осадков.
  • R24 - Количество осадков - Количество выпавших осадков за 24 часа, мм.
  • S - Снежный покров - Высота снежного покрова, см. При наведении курсора мыши на число - состояние снежного покрова и степень покрытия местности в баллах.